Location: Mason
(37.5237°N, 89.2543°W)
Time: 07:23:14
(UTC+00:00)

Cosmos 1953 Rocket - Pass Details

Date: 24 January 2021
Orbit: 605 x 634 km, 82.5° (Epoch: 08 March)

Event Time Altitude Azimuth Distance (km) Brightness Sun altitude
Rises 12:33:25 0° 352° (N) 2,869 6.7 -6.9°
Reaches altitude 10° 12:35:38 10° 352° (N) 1,963 5.9 -6.5°
Maximum altitude 12:39:58 87° 267° (W) 615 3.5 -5.7°
Drops below altitude 10° 12:44:19 10° 175° (S) 1,960 6.5 -4.9°
Sets 12:46:32 0° 175° (S) 2,865 7.3 -4.4°
